APG426 RPLL-RPVP

Flight info

Callsign APG426
Flight time 0h 55m
Altitude 32000
Route BUCAL2R BUCAL M646 NOMYO NOMYO2W
Aircraft A320/M-SDE3FGHIRWY/LB1

Departure

Time 2026-04-22 15:26
Airport Ninoy Aquino International Airport (RPLL)

Arrival

Time 2026-04-22 16:21
Airport Puerto Princesa International Airport / PAF Antonio Bautista Air Base (RPVP)
Time Latitude Longitude Altitude Speed Heading
2026-04-22 15:07 14.50862 121.01337 69 ft 0 kts 329°
2026-04-22 15:16 14.50858 121.01339 69 ft 4 kts 329°
2026-04-22 15:17 14.50835 121.01354 73 ft 4 kts 328°
2026-04-22 15:17 14.50813 121.01369 60 ft 3 kts 321°
2026-04-22 15:17 14.50800 121.01380 63 ft 2 kts 296°
2026-04-22 15:17 14.50796 121.01391 59 ft 2 kts 259°
2026-04-22 15:18 14.50798 121.01399 59 ft 2 kts 247°
2026-04-22 15:18 14.50804 121.01413 67 ft 2 kts 242°
2026-04-22 15:18 14.50806 121.01416 66 ft 0 kts 241°
2026-04-22 15:21 14.50795 121.01397 59 ft 9 kts 239°
2026-04-22 15:21 14.50765 121.01343 61 ft 8 kts 240°
2026-04-22 15:21 14.50696 121.01311 62 ft 16 kts 182°
2026-04-22 15:21 14.50622 121.01235 65 ft 16 kts 240°
2026-04-22 15:22 14.50561 121.01126 64 ft 22 kts 240°
2026-04-22 15:22 14.50483 121.00987 59 ft 23 kts 240°
2026-04-22 15:22 14.50401 121.00840 63 ft 24 kts 240°
2026-04-22 15:22 14.50315 121.00685 66 ft 25 kts 240°
2026-04-22 15:23 14.50227 121.00523 64 ft 26 kts 241°
2026-04-22 15:23 14.50133 121.00357 64 ft 27 kts 241°
2026-04-22 15:23 14.50040 121.00187 60 ft 28 kts 240°
2026-04-22 15:23 14.49952 121.00028 63 ft 22 kts 240°
2026-04-22 15:24 14.49888 120.99960 65 ft 10 kts 179°
2026-04-22 15:24 14.49870 120.99967 67 ft 0 kts 150°
2026-04-22 15:24 14.49861 120.99972 69 ft 5 kts 150°
2026-04-22 15:25 14.49803 121.00024 68 ft 15 kts 101°
2026-04-22 15:25 14.49848 121.00123 64 ft 19 kts 60°
2026-04-22 15:25 14.50018 121.00430 60 ft 84 kts 59°
2026-04-22 15:25 14.50410 121.01131 65 ft 139 kts 60°
2026-04-22 15:26 14.50967 121.02130 196 ft 172 kts 63°
2026-04-22 15:26 14.51565 121.03198 890 ft 171 kts 61°
2026-04-22 15:26 14.52161 121.04281 1410 ft 181 kts 62°
2026-04-22 15:26 14.52813 121.05492 1680 ft 203 kts 62°
2026-04-22 15:27 14.53313 121.06930 1913 ft 226 kts 87°
2026-04-22 15:27 14.52988 121.08582 2248 ft 250 kts 118°
2026-04-22 15:27 14.51786 121.09916 2862 ft 261 kts 148°
2026-04-22 15:27 14.50059 121.10502 3636 ft 267 kts 173°
2026-04-22 15:28 14.48192 121.10645 4439 ft 271 kts 177°
2026-04-22 15:28 14.46295 121.10745 5195 ft 275 kts 178°
2026-04-22 15:28 14.44411 121.10501 5896 ft 281 kts 200°
2026-04-22 15:28 14.42612 121.09671 6629 ft 286 kts 206°
2026-04-22 15:29 14.40826 121.08733 7338 ft 290 kts 207°
2026-04-22 15:29 14.39031 121.07764 8055 ft 294 kts 207°
2026-04-22 15:29 14.37212 121.06769 8779 ft 297 kts 207°
2026-04-22 15:30 14.33531 121.04711 10181 ft 305 kts 208°
2026-04-22 15:30 14.31638 121.03563 10395 ft 327 kts 210°
2026-04-22 15:30 14.29634 121.02291 10645 ft 346 kts 211°
2026-04-22 15:30 14.27578 121.00960 11186 ft 352 kts 211°
2026-04-22 15:31 14.25490 120.99607 11798 ft 356 kts 211°
2026-04-22 15:31 14.23416 120.98272 12422 ft 359 kts 211°
2026-04-22 15:31 14.21286 120.96912 13073 ft 360 kts 211°
2026-04-22 15:31 14.19143 120.95552 13711 ft 362 kts 211°
2026-04-22 15:32 14.16989 120.94190 14256 ft 364 kts 211°
2026-04-22 15:32 14.14822 120.92822 14773 ft 367 kts 211°
2026-04-22 15:32 14.12635 120.91440 15281 ft 370 kts 211°
2026-04-22 15:32 14.10435 120.90050 15799 ft 372 kts 211°
2026-04-22 15:33 14.08219 120.88648 16303 ft 375 kts 211°
2026-04-22 15:33 14.05985 120.87236 16797 ft 378 kts 211°
2026-04-22 15:33 14.03733 120.85815 17283 ft 381 kts 211°
2026-04-22 15:33 14.01462 120.84380 17770 ft 384 kts 211°
2026-04-22 15:34 13.99207 120.82953 18232 ft 386 kts 211°
2026-04-22 15:34 13.96911 120.81501 18641 ft 389 kts 212°
2026-04-22 15:34 13.94588 120.80032 19069 ft 390 kts 212°
2026-04-22 15:34 13.92283 120.78575 19484 ft 392 kts 212°
2026-04-22 15:35 13.89935 120.77092 19895 ft 394 kts 212°
2026-04-22 15:35 13.87598 120.75620 20289 ft 397 kts 212°
2026-04-22 15:35 13.85218 120.74120 20683 ft 399 kts 212°
2026-04-22 15:35 13.82867 120.72638 21068 ft 401 kts 212°
2026-04-22 15:36 13.80480 120.71133 21447 ft 403 kts 212°
2026-04-22 15:36 13.78078 120.69617 21837 ft 406 kts 212°
2026-04-22 15:36 13.75663 120.68094 22225 ft 408 kts 212°
2026-04-22 15:36 13.73240 120.66569 22601 ft 410 kts 212°
2026-04-22 15:37 13.70798 120.65033 22975 ft 412 kts 212°
2026-04-22 15:37 13.68345 120.63489 23341 ft 414 kts 212°
2026-04-22 15:37 13.65885 120.61940 23667 ft 416 kts 212°
2026-04-22 15:37 13.63443 120.60401 23963 ft 418 kts 212°
2026-04-22 15:38 13.60955 120.58834 24270 ft 420 kts 212°
2026-04-22 15:38 13.55691 120.56156 24856 ft 424 kts 206°
2026-04-22 15:38 13.53011 120.54871 25164 ft 426 kts 206°
2026-04-22 15:39 13.50321 120.53577 25463 ft 428 kts 206°
2026-04-22 15:39 13.47623 120.52277 25768 ft 430 kts 206°
2026-04-22 15:39 13.44916 120.50969 26066 ft 431 kts 206°
2026-04-22 15:39 13.42183 120.49647 26366 ft 433 kts 206°
2026-04-22 15:40 13.39469 120.48336 26655 ft 435 kts 206°
2026-04-22 15:40 13.36739 120.47021 26937 ft 437 kts 206°
2026-04-22 15:40 13.33970 120.45689 27220 ft 438 kts 206°
2026-04-22 15:40 13.31190 120.44354 27497 ft 440 kts 206°
2026-04-22 15:41 13.28432 120.43033 27779 ft 442 kts 206°
2026-04-22 15:41 13.25620 120.41686 28057 ft 443 kts 206°
2026-04-22 15:41 13.22837 120.40352 28326 ft 445 kts 206°
2026-04-22 15:41 13.20036 120.39009 28595 ft 447 kts 206°
2026-04-22 15:42 13.17215 120.37656 28858 ft 449 kts 206°
2026-04-22 15:42 13.14358 120.36285 29130 ft 451 kts 206°
2026-04-22 15:42 13.11522 120.34923 29389 ft 452 kts 206°
2026-04-22 15:42 13.08698 120.33568 29644 ft 454 kts 206°
2026-04-22 15:43 13.05814 120.32183 29902 ft 455 kts 206°
2026-04-22 15:43 13.02957 120.30814 30110 ft 457 kts 206°
2026-04-22 15:43 13.00076 120.29435 30318 ft 459 kts 206°
2026-04-22 15:43 12.97158 120.28040 30526 ft 460 kts 206°
2026-04-22 15:44 12.94277 120.26663 30746 ft 461 kts 206°
2026-04-22 15:44 12.91357 120.25266 30996 ft 461 kts 206°
2026-04-22 15:44 12.88464 120.23880 31314 ft 459 kts 206°
2026-04-22 15:44 12.85584 120.22497 31624 ft 458 kts 206°
2026-04-22 15:45 12.82683 120.21106 31852 ft 458 kts 206°
2026-04-22 15:45 12.79839 120.19745 31904 ft 448 kts 206°
2026-04-22 15:45 12.74260 120.17082 31910 ft 437 kts 206°
2026-04-22 15:46 12.68783 120.14463 31909 ft 436 kts 206°
2026-04-22 15:46 12.63288 120.11831 31913 ft 436 kts 206°
2026-04-22 15:47 12.57790 120.09204 31907 ft 436 kts 206°
2026-04-22 15:47 12.52293 120.06579 31910 ft 436 kts 206°
2026-04-22 15:48 12.46793 120.03960 31905 ft 436 kts 206°
2026-04-22 15:48 12.41315 120.01348 31905 ft 435 kts 206°
2026-04-22 15:49 12.35822 119.98737 31908 ft 435 kts 206°
2026-04-22 15:49 12.30349 119.96127 31906 ft 435 kts 206°
2026-04-22 15:50 12.24853 119.93502 31901 ft 435 kts 206°
2026-04-22 15:50 12.19379 119.90894 31904 ft 435 kts 206°
2026-04-22 15:51 12.13853 119.88268 31906 ft 435 kts 206°
2026-04-22 15:51 12.08355 119.85649 31909 ft 435 kts 206°
2026-04-22 15:52 12.02872 119.83042 31904 ft 436 kts 206°
2026-04-22 15:52 11.97386 119.80439 31909 ft 435 kts 206°
2026-04-22 15:53 11.91917 119.77840 31901 ft 435 kts 206°
2026-04-22 15:53 11.86438 119.75242 31902 ft 435 kts 206°
2026-04-22 15:54 11.80950 119.72641 31898 ft 434 kts 206°
2026-04-22 15:54 11.75474 119.70039 31900 ft 434 kts 206°
2026-04-22 15:55 11.69988 119.67437 31900 ft 434 kts 206°
2026-04-22 15:55 11.64522 119.64880 31901 ft 434 kts 205°
2026-04-22 15:56 11.59010 119.62337 31897 ft 434 kts 205°
2026-04-22 15:56 11.53507 119.59799 31897 ft 434 kts 205°
2026-04-22 15:57 11.48006 119.57238 31899 ft 434 kts 205°
2026-04-22 15:57 11.42503 119.54686 31900 ft 435 kts 205°
2026-04-22 15:58 11.36999 119.52132 31900 ft 435 kts 205°
2026-04-22 15:58 11.31497 119.49586 31902 ft 435 kts 205°
2026-04-22 15:59 11.25983 119.47030 31831 ft 434 kts 205°
2026-04-22 15:59 11.23259 119.45767 31591 ft 424 kts 205°
2026-04-22 15:59 11.20614 119.44542 31355 ft 417 kts 205°
2026-04-22 16:00 11.18847 119.43724 31199 ft 415 kts 205°
2026-04-22 16:00 11.15352 119.42105 30889 ft 413 kts 205°
2026-04-22 16:00 11.12765 119.40909 30648 ft 410 kts 205°
2026-04-22 16:00 11.10168 119.39708 30214 ft 407 kts 205°
2026-04-22 16:01 11.07593 119.38515 29709 ft 406 kts 205°
2026-04-22 16:01 11.05035 119.37330 29232 ft 402 kts 205°
2026-04-22 16:01 11.02499 119.36159 28789 ft 398 kts 205°
2026-04-22 16:01 10.99985 119.34999 28360 ft 395 kts 205°
2026-04-22 16:02 10.97477 119.33844 27918 ft 391 kts 204°
2026-04-22 16:02 10.95043 119.32727 27494 ft 388 kts 204°
2026-04-22 16:02 10.92567 119.31588 27057 ft 385 kts 204°
2026-04-22 16:02 10.90154 119.30474 26630 ft 383 kts 204°
2026-04-22 16:03 10.87738 119.29356 26195 ft 380 kts 204°
2026-04-22 16:03 10.85341 119.28246 25764 ft 378 kts 204°
2026-04-22 16:03 10.82947 119.27137 25308 ft 378 kts 204°
2026-04-22 16:03 10.80553 119.26028 24859 ft 377 kts 204°
2026-04-22 16:04 10.78168 119.24929 24384 ft 377 kts 204°
2026-04-22 16:04 10.75779 119.23829 23920 ft 377 kts 204°
2026-04-22 16:04 10.73395 119.22729 23438 ft 377 kts 204°
2026-04-22 16:04 10.71010 119.21626 22910 ft 376 kts 204°
2026-04-22 16:05 10.69432 119.20897 22600 ft 375 kts 204°
2026-04-22 16:05 10.66263 119.19438 21977 ft 373 kts 204°
2026-04-22 16:05 10.63903 119.18353 21520 ft 372 kts 204°
2026-04-22 16:05 10.61554 119.17270 21064 ft 371 kts 204°
2026-04-22 16:06 10.59205 119.16184 20606 ft 370 kts 204°
2026-04-22 16:06 10.56870 119.15106 20158 ft 369 kts 204°
2026-04-22 16:06 10.54559 119.14044 19716 ft 369 kts 204°
2026-04-22 16:06 10.52225 119.12971 19249 ft 368 kts 204°
2026-04-22 16:07 10.49888 119.11897 18819 ft 368 kts 204°
2026-04-22 16:07 10.47558 119.10824 18375 ft 368 kts 205°
2026-04-22 16:07 10.45229 119.09750 17939 ft 367 kts 205°
2026-04-22 16:07 10.42918 119.08689 17511 ft 364 kts 205°
2026-04-22 16:08 10.40618 119.07634 17185 ft 359 kts 205°
2026-04-22 16:08 10.38345 119.06589 16776 ft 356 kts 205°
2026-04-22 16:08 10.36112 119.05565 16269 ft 349 kts 205°
2026-04-22 16:08 10.34008 119.04379 15763 ft 345 kts 216°
2026-04-22 16:09 10.32106 119.02947 15344 ft 344 kts 217°
2026-04-22 16:09 10.30187 119.01502 14962 ft 343 kts 217°
2026-04-22 16:09 10.28276 119.00066 14596 ft 340 kts 216°
2026-04-22 16:09 10.26371 118.98641 14166 ft 341 kts 216°
2026-04-22 16:10 10.24477 118.97226 13872 ft 334 kts 216°
2026-04-22 16:10 10.22623 118.95839 13243 ft 329 kts 216°
2026-04-22 16:10 10.21416 118.94935 12939 ft 321 kts 216°
2026-04-22 16:10 10.19073 118.93173 12502 ft 308 kts 216°
2026-04-22 16:11 10.17356 118.91887 12142 ft 304 kts 216°
2026-04-22 16:11 10.15612 118.90687 11771 ft 302 kts 206°
2026-04-22 16:11 10.13641 118.89994 11395 ft 301 kts 189°
2026-04-22 16:11 10.11583 118.89910 11030 ft 301 kts 173°
2026-04-22 16:12 10.09542 118.90394 10659 ft 301 kts 163°
2026-04-22 16:12 10.07538 118.90997 10347 ft 299 kts 163°
2026-04-22 16:12 10.05559 118.91586 10030 ft 296 kts 164°
2026-04-22 16:12 10.03583 118.92172 9742 ft 294 kts 163°
2026-04-22 16:13 10.01627 118.92752 9346 ft 293 kts 163°
2026-04-22 16:13 9.99676 118.93328 8974 ft 291 kts 163°
2026-04-22 16:13 9.97735 118.93902 8608 ft 290 kts 163°
2026-04-22 16:13 9.95805 118.94474 8230 ft 288 kts 163°
2026-04-22 16:14 9.93884 118.95046 7859 ft 286 kts 163°
2026-04-22 16:14 9.91991 118.95612 7471 ft 286 kts 162°
2026-04-22 16:14 9.90078 118.96184 7066 ft 286 kts 162°
2026-04-22 16:14 9.88178 118.96753 6708 ft 284 kts 162°
2026-04-22 16:15 9.86285 118.97318 6366 ft 281 kts 162°
2026-04-22 16:15 9.84427 118.97872 5981 ft 280 kts 162°
2026-04-22 16:15 9.82557 118.98426 5627 ft 277 kts 163°
2026-04-22 16:15 9.80671 118.98680 5281 ft 276 kts 179°
2026-04-22 16:16 9.78771 118.98595 4917 ft 268 kts 180°
2026-04-22 16:16 9.76952 118.98508 4573 ft 256 kts 180°
2026-04-22 16:16 9.75220 118.98351 4225 ft 246 kts 194°
2026-04-22 16:16 9.73835 118.97416 3919 ft 241 kts 233°
2026-04-22 16:17 9.73327 118.95839 3604 ft 236 kts 269°
2026-04-22 16:17 9.73381 118.94195 3301 ft 230 kts 272°
2026-04-22 16:17 9.73458 118.92598 2996 ft 225 kts 272°
2026-04-22 16:17 9.73536 118.91031 2698 ft 220 kts 272°
2026-04-22 16:18 9.73587 118.90012 2510 ft 217 kts 272°
2026-04-22 16:18 9.73682 118.88016 2135 ft 211 kts 272°
2026-04-22 16:18 9.73748 118.86556 1877 ft 200 kts 272°
2026-04-22 16:18 9.73809 118.85193 1613 ft 188 kts 272°
2026-04-22 16:19 9.73865 118.83934 1369 ft 170 kts 272°
2026-04-22 16:19 9.73914 118.82786 1133 ft 158 kts 272°
2026-04-22 16:19 9.73961 118.81692 938 ft 152 kts 272°
2026-04-22 16:19 9.74010 118.80641 758 ft 147 kts 274°
2026-04-22 16:20 9.74046 118.79960 636 ft 145 kts 274°
2026-04-22 16:20 9.74098 118.78606 374 ft 141 kts 273°
2026-04-22 16:20 9.74136 118.77622 184 ft 139 kts 275°
2026-04-22 16:20 9.74171 118.76977 68 ft 137 kts 275°
2026-04-22 16:21 9.74216 118.76075 54 ft 113 kts 274°
2026-04-22 16:21 9.74222 118.75564 67 ft 29 kts 274°
2026-04-22 16:21 9.74227 118.75392 68 ft 23 kts 269°
2026-04-22 16:21 9.74257 118.75259 72 ft 15 kts 321°
2026-04-22 16:22 9.74395 118.75250 70 ft 8 kts 323°
2026-04-22 16:22 9.74411 118.75194 76 ft 9 kts 272°
2026-04-22 16:22 9.74413 118.75122 77 ft 11 kts 271°
2026-04-22 16:23 9.74499 118.75064 73 ft 1 kts
2026-04-22 16:23 9.74502 118.75064 73 ft 0 kts
2026-04-22 16:23 9.74511 118.75065 75 ft 1 kts
2026-04-22 16:24 9.74512 118.75065 75 ft 0 kts